Probability
0 0 0 0 0 0 0 0 0 0 0 1 1 1 3 7 10 12 11 10 14 24 35 40 41 40 41 45 47 45 45 45 44 39 36 32 28 25 24 23 22 23 19 15
0 0 0 0 0 0 0 0 0 0 0 0 0 1 3 6 9 11 11 9 14 24 34 39 40 41 42 44 45 43 41 40 39 36 33 30 27 24 22 22 22 21 18 15
0 0 0 0 0 0 0 0 0 0 0 0 0 1 4 5 7 9 9 9 13 21 29 34 37 40 42 44 43 42 42 40 37 34 31 27 25 23 22 22 22 20 16 15
0 0 0 0 0 0 0 0 0 0 0 0 0 2 4 6 7 7 8 10 13 17 23 29 32 35 39 41 41 42 45 44 40 36 32 27 24 23 23 23 23 19 16 15
0 0 0 0 0 0 0 0 0 0 0 1 1 2 4 5 6 8 9 11 13 15 20 25 28 30 34 37 38 41 46 46 42 38 33 29 25 23 23 25 25 21 17 16
0 0 0 0 0 0 0 0 0 0 0 1 1 2 4 5 6 9 11 12 13 15 20 24 26 29 32 34 37 39 44 46 44 40 35 31 28 26 25 26 26 23 19 17
0 0 0 0 0 0 0 0 0 0 0 1 1 3 5 6 6 9 13 14 15 18 23 25 26 28 31 35 38 39 41 43 43 40 36 32 30 29 27 26 25 22 19 18
0 0 0 0 0 0 0 0 0 0 0 0 0 2 5 6 5 8 13 17 20 23 27 29 30 29 31 37 40 39 37 37 37 37 35 33 32 30 27 24 22 20 18 17
0 0 0 0 0 0 0 0 0 0 0 0 0 2 5 6 5 6 11 18 23 25 28 30 31 30 30 34 38 36 33 31 32 33 32 31 29 27 24 22 19 18 17 17
0 0 0 0 0 0 0 0 0 0 0 0 0 2 5 7 6 5 9 16 21 24 26 26 27 26 26 28 31 30 28 27 26 26 26 24 22 21 20 20 18 17 17 17
0 0 0 0 0 0 0 0 0 0 0 0 1 3 5 8 8 6 7 11 16 20 22 21 21 20 19 22 26 27 24 22 19 19 19 18 16 16 16 16 15 15 15 16
1 1 1 0 0 0 0 0 0 1 1 1 1 4 7 10 10 8 6 6 8 14 18 17 15 14 16 19 22 24 22 19 17 15 15 16 15 14 13 13 13 13 14 14
1 3 3 1 0 0 0 0 0 1 1 1 1 4 9 12 11 9 7 4 6 12 15 13 11 11 14 17 18 21 22 20 17 16 15 16 16 14 13 12 13 14 13 12
1 2 2 1 0 0 0 0 0 1 1 0 1 4 9 11 12 12 10 7 7 10 12 11 12 14 15 15 15 18 21 20 17 16 16 16 17 17 16 14 15 14 12 11
1 1 1 1 1 0 0 0 0 1 2 1 2 5 6 8 11 13 11 8 6 7 9 11 14 16 15 14 14 17 19 18 16 16 16 16 18 19 19 17 16 14 12 10
2 3 3 3 2 1 0 0 1 2 3 4 5 6 5 6 10 12 10 7 6 5 7 10 14 15 15 15 16 18 18 17 16 15 14 15 16 18 18 18 16 14 12 12
2 3 3 2 1 1 1 1 2 3 4 6 6 6 6 7 9 11 9 8 8 7 9 12 14 16 18 18 19 19 18 16 15 14 12 12 13 14 15 16 15 14 14 13
1 1 1 0 0 1 1 2 2 2 3 4 5 6 7 8 8 9 9 9 10 12 16 18 18 19 20 21 21 17 14 14 13 12 11 11 11 11 11 13 13 13 14 14
0 0 0 0 0 0 0 1 1 1 1 2 4 6 6 6 5 6 9 12 13 17 22 23 21 20 20 20 20 15 12 12 12 11 11 11 11 10 9 10 11 12 13 13
0 0 1 0 0 0 0 0 0 0 1 3 5 6 5 3 3 5 9 13 16 20 23 24 22 21 20 19 18 16 14 13 11 10 10 11 11 10 8 8 9 10 10 11
0 0 0 0 0 0 0 0 1 2 3 5 5 4 3 2 3 5 8 12 16 19 21 21 20 19 19 19 16 16 16 15 13 10 10 10 9 9 9 9 9 8 7 7
1 0 0 0 0 0 1 1 2 4 6 6 4 3 2 2 3 4 7 9 11 15 17 18 17 16 15 15 15 14 16 17 15 13 12 10 9 8 8 9 9 6 4 4
1 0 0 0 0 1 2 2 3 5 6 4 3 1 1 1 2 3 5 6 7 10 13 14 14 13 11 11 13 15 15 16 17 16 15 13 11 9 7 7 6 3 1 1
1 0 0 0 0 1 2 2 3 3 3 2 2 1 0 0 0 1 3 5 6 8 10 11 12 11 9 9 12 14 15 16 18 18 17 14 12 10 8 6 3 1 0 0
2 1 1 1 1 1 1 1 1 1 1 0 0 0 0 0 0 0 1 3 5 7 8 9 10 9 8 8 10 12 14 16 17 17 16 13 10 9 8 6 3 1 0 0
3 2 2 2 2 1 1 1 0 0 0 0 0 0 0 0 0 0 1 3 4 5 7 8 9 9 7 7 8 11 14 16 16 15 14 11 9 9 9 6 3 1 0 0
Wind_Speed
13 13 13 14 14 14 14 15 14 11 9 10 10 9 7 7 8 7 7 7 7 6 6 6 7 7 7 7 6 5 5 5 4 3 4 3 3 3 3 3 4 5 4 4
13 16 17 15 14 14 16 16 14 12 10 9 10 9 7 8 9 7 6 7 7 7 7 7 6 6 7 7 7 6 5 5 4 3 3 3 3 3 3 3 4 5 4 4
17 13 12 13 14 14 15 14 12 13 13 12 12 12 9 8 8 7 7 7 8 8 8 8 7 6 7 7 7 6 5 5 4 4 3 3 3 3 4 4 4 4 5 4
16 15 11 12 13 14 13 12 12 14 14 11 10 11 8 6 6 6 7 7 7 7 8 8 8 7 7 7 7 7 6 5 4 4 4 5 4 4 4 4 4 4 5 5
15 13 13 13 12 12 13 12 13 15 15 14 12 12 6 5 6 8 8 7 7 7 8 8 9 8 7 7 7 7 6 5 5 4 4 5 4 4 3 4 5 5 4 4
17 14 12 12 11 11 12 12 14 14 12 13 12 11 7 4 5 7 8 7 6 7 7 8 8 8 8 7 7 7 6 5 5 5 5 5 5 5 5 5 6 4 3 3
16 15 12 11 12 10 10 9 8 9 9 9 8 8 5 2 3 3 5 5 5 5 5 6 6 6 7 7 6 5 6 5 4 4 4 4 4 4 5 6 5 5 4 3
13 12 11 10 11 10 10 11 9 9 9 8 8 6 3 4 3 5 4 5 5 4 5 6 6 6 6 6 6 5 6 5 5 4 3 3 4 3 3 4 4 4 3 4
11 10 8 9 10 11 11 10 11 11 12 11 7 4 2 3 4 5 5 5 5 5 5 5 6 5 5 6 6 5 6 5 4 4 4 3 4 3 3 4 3 3 3 4
12 11 10 9 10 11 12 8 6 8 9 10 8 4 1 0 1 3 4 4 4 5 6 6 6 5 5 5 6 5 5 5 4 3 3 3 3 3 2 3 3 3 3 3
10 11 11 10 11 12 11 11 8 7 8 8 8 3 2 3 2 1 2 3 5 5 4 5 6 5 5 5 5 5 5 5 4 4 3 4 3 3 3 2 3 2 3 4
7 8 10 11 10 11 12 12 10 7 8 8 8 2 4 5 3 2 1 3 4 5 5 5 5 5 5 5 4 4 4 4 4 4 4 4 4 4 3 3 3 3 3 3
6 6 9 9 8 9 9 10 10 8 7 8 8 2 3 4 3 2 2 2 4 5 5 5 5 5 5 4 4 4 4 4 3 4 4 4 4 3 3 3 3 3 3 3
6 8 10 12 9 9 9 10 10 9 8 9 7 2 1 3 4 4 4 2 4 5 4 5 4 5 4 4 4 3 3 3 3 3 3 3 3 3 3 3 3 3 3 3
6 9 11 13 12 11 10 11 11 10 8 8 5 2 2 3 4 4 4 3 2 4 4 4 4 4 4 4 3 3 3 3 3 3 3 3 3 3 3 2 2 2 2 3
4 8 10 12 11 11 9 9 10 10 8 7 3 1 2 4 5 5 4 2 2 3 3 3 3 4 3 3 3 3 3 3 3 3 2 3 3 3 2 2 2 2 2 1
6 8 10 11 11 9 8 6 6 4 5 6 4 3 4 5 5 5 4 3 2 3 4 3 3 3 3 3 3 3 3 3 3 3 2 2 3 3 3 2 2 2 2 2
8 8 7 10 9 11 3 3 4 2 4 6 5 5 4 3 5 5 5 3 4 4 4 3 3 3 3 3 3 2 2 3 3 3 2 2 2 2 2 2 2 2 1 1
6 7 8 8 9 6 2 3 6 4 2 5 5 6 5 4 4 4 6 6 5 5 4 3 3 2 2 2 2 2 2 2 2 3 2 2 2 2 2 2 2 1 1 1
4 5 6 7 8 6 3 7 7 2 1 6 7 6 6 5 2 3 6 6 5 5 4 3 3 2 2 1 2 2 1 2 2 2 2 2 2 2 2 2 2 1 1 2
3 4 6 7 7 1 4 7 5 2 2 6 6 7 6 5 4 3 5 5 4 4 3 3 2 2 1 1 1 1 1 1 1 1 1 1 1 1 1 1 1 1 2 2
4 4 4 5 4 1 6 5 5 4 4 5 5 5 5 4 4 3 4 4 3 3 2 2 2 1 1 1 1 1 2 1 1 1 1 1 1 2 2 1 1 2 2 3
2 3 3 3 2 3 5 5 4 4 5 5 4 4 4 4 4 4 4 4 3 2 1 1 1 1 1 1 1 1 2 2 2 1 1 1 2 2 2 3 3 3 2 3
1 3 3 2 0 1 3 4 4 4 4 5 4 3 3 3 4 4 4 4 4 2 2 1 1 1 1 1 2 2 2 2 2 2 2 2 2 3 2 2 3 3 3 3
5 4 3 3 3 2 3 3 3 3 3 4 3 3 4 4 4 4 4 3 3 3 2 2 2 2 2 2 2 2 2 1 2 2 2 3 4 4 3 3 3 4 3 3
4 3 3 2 3 4 3 3 4 4 5 5 5 5 4 4 4 5 4 3 3 3 2 2 3 2 2 2 2 2 2 2 2 3 3 3 4 3 4 4 3 3 4 3
Wind_Direction
226 232 238 242 243 255 268 275 279 278 262 258 254 252 240 233 230 224 202 185 182 174 158 144 141 140 136 132 137 143 147 146 150 159 170 168 167 162 151 149 151 151 156 153
234 235 244 251 254 257 264 271 278 285 283 275 273 262 249 234 233 220 206 192 183 173 153 140 138 142 145 147 151 155 155 153 163 164 171 167 166 165 154 148 148 152 154 161
241 246 246 255 258 259 262 269 278 285 283 273 270 264 243 240 226 209 205 195 183 174 162 154 157 160 157 157 161 165 160 158 167 159 161 158 159 160 152 151 156 161 166 169
250 251 247 251 257 261 267 274 279 279 279 276 269 271 245 226 233 214 200 191 189 178 167 164 167 170 168 162 163 157 156 159 164 162 167 173 176 173 162 160 158 165 167 168
255 253 253 254 259 267 273 283 279 277 276 276 270 269 261 216 213 215 204 189 184 179 172 169 174 175 169 162 160 156 157 167 171 181 180 183 177 172 159 154 152 163 167 172
262 262 254 258 259 260 268 275 276 270 265 262 264 265 265 238 226 209 185 184 176 176 171 167 174 171 165 164 160 156 158 169 174 182 185 192 187 179 166 163 160 166 165 172
253 252 252 257 257 255 256 262 268 264 250 254 257 253 253 231 231 161 147 163 166 168 165 166 171 163 155 152 147 154 158 165 174 179 184 190 192 184 175 169 170 174 170 173
257 251 240 239 252 257 249 253 260 275 281 288 281 250 223 150 131 108 125 139 147 155 164 163 160 152 153 151 144 151 155 167 173 175 180 175 177 183 181 177 178 179 174 171
266 263 252 241 241 253 254 254 269 277 280 278 268 277 48 106 108 115 132 142 146 144 138 144 140 136 140 147 149 158 154 157 166 169 170 174 171 180 179 171 186 176 169 163
274 277 255 245 251 245 252 260 269 270 283 286 282 264 263 16 136 145 138 137 139 141 140 136 129 132 137 144 147 154 151 151 152 159 161 149 142 167 174 166 170 170 174 160
275 275 268 247 242 251 250 248 251 263 271 281 285 289 73 87 64 29 117 127 124 119 127 131 129 134 139 144 150 152 148 141 143 149 140 130 140 150 154 152 164 175 173 171
282 280 271 260 251 254 257 259 255 255 265 271 275 276 51 55 55 33 75 114 116 120 117 120 122 131 145 148 149 141 139 144 145 141 138 138 140 143 149 160 165 175 183 186
305 286 273 261 247 246 252 258 268 272 270 264 270 248 72 53 59 31 49 108 118 110 115 119 123 133 137 134 132 137 140 139 145 140 138 137 144 148 154 162 170 173 185 199
284 270 266 265 273 276 266 264 266 266 267 271 272 281 15 359 30 31 37 41 110 118 126 127 122 115 116 119 119 126 127 133 139 135 138 138 147 150 160 170 175 188 195 201
288 271 272 273 273 271 273 278 279 274 269 267 285 321 351 354 32 28 38 27 91 111 118 117 117 112 117 124 122 125 124 121 127 142 147 148 146 143 153 169 180 195 212 213
297 288 285 277 272 271 269 276 278 279 286 284 293 316 20 26 43 38 38 18 30 79 84 100 114 122 123 125 132 130 133 138 138 142 147 147 156 165 169 171 168 181 208 222
273 278 281 276 273 271 271 300 289 290 325 318 317 350 26 24 35 43 24 10 14 66 53 64 81 95 111 127 134 143 145 143 146 151 159 164 165 168 175 185 179 194 202 212
259 268 270 272 266 255 264 325 331 355 7 360 2 7 28 47 54 54 34 24 31 44 50 62 68 79 99 115 123 135 155 152 156 159 163 167 168 169 169 183 188 195 206 217
231 250 264 267 263 249 244 301 300 281 316 2 2 9 18 35 74 60 32 23 27 42 47 54 64 75 93 109 132 144 146 153 172 179 181 185 192 192 193 196 199 209 213 231
221 229 247 266 271 271 344 343 324 278 220 16 15 10 2 3 3 11 10 14 26 48 49 47 57 67 80 113 145 168 178 173 191 199 197 189 198 199 204 208 218 223 226 243
256 252 255 263 261 265 352 344 336 300 26 19 11 1 4 0 353 349 355 12 32 38 53 46 46 52 56 107 132 172 199 203 216 208 172 162 168 191 203 197 207 217 235 245
293 276 277 282 267 305 7 12 22 22 7 5 2 5 9 12 17 3 4 7 26 22 29 40 31 15 13 146 156 187 211 212 205 188 181 191 191 220 216 192 211 230 235 238
308 341 334 4 45 44 33 39 37 23 3 354 348 5 5 356 354 349 354 357 346 356 355 351 282 275 275 233 198 215 235 227 208 186 198 222 229 234 216 205 215 230 235 242
3 6 318 322 41 23 26 21 18 17 345 327 327 335 349 355 354 345 342 343 337 346 346 330 290 256 256 263 234 226 231 234 218 191 197 223 235 244 232 222 223 229 235 242
336 320 299 288 315 322 345 4 2 350 330 320 328 342 346 349 348 342 324 334 336 335 336 316 296 276 260 253 245 238 226 244 229 212 220 229 231 230 229 234 244 243 245 240
323 327 309 331 333 317 341 357 358 349 341 340 339 340 339 344 338 338 336 334 321 319 326 324 307 285 271 262 262 249 228 226 231 227 231 238 240 230 226 227 237 257 248 231